Tracking 17155 objects as of 28-July-2015
HD Live streaming from Space Station

COSMOS 970 DEB

Track COSMOS 970 DEB now!
10-day predictions
COSMOS 970 DEB is classified as:


NORAD ID: 10563
Int'l Code: 1977-121E
Perigee: 876.6 km
Apogee: 1,026.3 km
Inclination: 65.9 °
Period: 103.9 minutes
Semi major axis: 7322 km
RCS: 0.0231 m2 (small)
Launch date: December 21, 1977
Source: Commonwealth of Independent States (former USSR) (CIS)

Note: This is SATELLITE DEBRIS
Your satellite tracking list
Your tracking list is empty





NASA's NSSDC Master Catalog

Two Line Element Set (TLE):
1 10563U 77121E   15207.53206654  .00000290  00000-0  31315-3 0  9996
2 10563 065.8508 318.2090 0102165 156.7923 203.7808 13.85536212885487

Source of the keplerian elements: AFSPC

N2YO: 461